Buckeye, AZ

5:46 PM MST on August 18, 2017 (GMT -0700)
Buckeye Municipal

Weather History for KBXK - September, 2012

Change the Weather History Date:

Sunday, September 9, 2012

  Actual Average (KGYR) Record (KGYR)
Temperature  
Mean Temperature 84 °F -  
Max Temperature 93 °F 99 °F 105 °F (1997)
Min Temperature 75 °F 74 °F 66 °F (2010)
Cooling Degree Days 19    
Growing Degree Days 34 (Base 50)    
Moisture  
Dew Point 60 °F    
Average Humidity 44    
Maximum Humidity 78    
Minimum Humidity 28    
Precipitation  
Precipitation 0.13 in - - ()
Sea Level Pressure  
Sea Level Pressure 29.93 in    
Wind  
Wind Speed 14 mph (East)    
Max Wind Speed 26 mph    
Max Gust Speed 40 mph    
Visibility 10 miles    
Events      
Averages and records for this station are not official NWS values.
T = Trace of Precipitation, MM = Missing Value Source: NWS Daily Summary

Daily Weather History Graph

Daily Weather History Graph

Search for Another Location

Airport or City:

Trip Planner

Search our weather history database for the weather conditions in past years. The results will help you decide how hot, cold, wet, or windy it might be!

Date:

Astronomy

Sep. 09, 2012 Rise Set
Actual Time 6:10 AM MST 6:44 PM MST
Civil Twilight 5:45 AM MST 7:09 PM MST
Nautical Twilight 5:16 AM MST 7:38 PM MST
Astronomical Twilight 4:46 AM MST 8:08 PM MST
Moon No Moon Rise 2:20 PM MST (9/9)
Length of Visible Light 13h 24m
Length of Day
12h 33m
Last Quarter, 38% of the Moon is Illuminated
Sep 9
Last Quarter
Sep 15
New
Sep 22
First Quarter
Sep 29
Full
Oct 8
Last Quarter

Hourly Weather History & Observations

Time (MST) Temp. Heat Index Dew Point Humidity Pressure Visibility Wind Dir Wind Speed Gust Speed Precip Events Conditions
12:15 AM 84.2 °F 83.8 °F 59.0 °F 42% 29.92 in 10.0 mi ENE 12.7 mph 18.4 mph N/A   Overcast
12:55 AM 84.2 °F 83.8 °F 59.0 °F 42% 29.91 in 10.0 mi ENE 16.1 mph 21.9 mph N/A   Overcast
1:15 AM 84.2 °F 83.8 °F 59.0 °F 42% 29.91 in 10.0 mi ENE 13.8 mph - N/A   Overcast
1:35 AM 84.2 °F 83.8 °F 59.0 °F 42% 29.90 in 10.0 mi ENE 16.1 mph 20.7 mph N/A   Overcast
1:55 AM 84.2 °F 83.5 °F 57.2 °F 40% 29.90 in 10.0 mi ENE 16.1 mph 21.9 mph N/A   Overcast
2:15 AM 84.2 °F 83.5 °F 57.2 °F 40% 29.89 in 10.0 mi ENE 18.4 mph - N/A   Overcast
2:55 AM 84.2 °F 83.5 °F 57.2 °F 40% 29.90 in 10.0 mi East 13.8 mph 20.7 mph N/A   Overcast
3:15 AM 84.2 °F 83.5 °F 57.2 °F 40% 29.91 in 10.0 mi East 15.0 mph - N/A   Overcast
3:55 AM 82.4 °F 82.0 °F 57.2 °F 42% 29.91 in 10.0 mi ENE 13.8 mph 18.4 mph N/A   Overcast
4:15 AM 82.4 °F 82.0 °F 57.2 °F 42% 29.91 in 10.0 mi ENE 12.7 mph - N/A   Mostly Cloudy
4:35 AM 82.4 °F 82.0 °F 57.2 °F 42% 29.91 in 10.0 mi ENE 12.7 mph 16.1 mph N/A   Scattered Clouds
4:55 AM 82.4 °F 82.0 °F 57.2 °F 42% 29.91 in 10.0 mi ENE 15.0 mph - N/A   Mostly Cloudy
5:15 AM 82.4 °F 82.0 °F 57.2 °F 42% 29.92 in 10.0 mi ENE 10.4 mph - N/A   Mostly Cloudy
5:35 AM 80.6 °F 80.8 °F 57.2 °F 45% 29.93 in 10.0 mi East 5.8 mph - N/A   Mostly Cloudy
5:55 AM 80.6 °F 80.8 °F 57.2 °F 45% 29.93 in 10.0 mi East 8.1 mph - N/A   Scattered Clouds
6:15 AM 80.6 °F 80.8 °F 57.2 °F 45% 29.93 in 10.0 mi East 9.2 mph - N/A   Clear
6:35 AM 80.6 °F 80.8 °F 57.2 °F 45% 29.94 in 10.0 mi East 4.6 mph - N/A   Clear
7:15 AM 82.4 °F 82.0 °F 57.2 °F 42% 29.95 in 10.0 mi ENE 12.7 mph 18.4 mph N/A   Clear
7:35 AM 84.2 °F 83.0 °F 55.4 °F 37% 29.95 in 10.0 mi East 16.1 mph - N/A   Clear
7:55 AM 84.2 °F 83.0 °F 55.4 °F 37% 29.94 in 10.0 mi ENE 17.3 mph 20.7 mph N/A   Clear
8:15 AM 86.0 °F 84.5 °F 55.4 °F 35% 29.94 in 10.0 mi ENE 18.4 mph - N/A   Clear
8:35 AM 86.0 °F 84.5 °F 55.4 °F 35% 29.94 in 10.0 mi ENE 23.0 mph - N/A   Clear
8:55 AM 87.8 °F 86.1 °F 55.4 °F 33% 29.94 in 10.0 mi ENE 18.4 mph 24.2 mph N/A   Clear
9:15 AM 89.6 °F 87.7 °F 55.4 °F 31% 29.95 in 10.0 mi ENE 20.7 mph 28.8 mph N/A   Clear
9:35 AM 89.6 °F 87.7 °F 55.4 °F 31% 29.95 in 10.0 mi East 20.7 mph 26.5 mph N/A   Clear
9:55 AM 89.6 °F 87.7 °F 55.4 °F 31% 29.95 in 10.0 mi East 18.4 mph 25.3 mph N/A   Clear
10:15 AM 89.6 °F 87.7 °F 55.4 °F 31% 29.95 in 10.0 mi East 17.3 mph 24.2 mph N/A   Clear
10:35 AM 91.4 °F 89.4 °F 55.4 °F 29% 29.95 in 10.0 mi East 15.0 mph 21.9 mph N/A   Clear
10:55 AM 91.4 °F 89.9 °F 57.2 °F 31% 29.95 in 10.0 mi East 17.3 mph 24.2 mph N/A   Clear
11:15 AM 91.4 °F 89.9 °F 57.2 °F 31% 29.95 in 10.0 mi East 18.4 mph 23.0 mph N/A   Clear
11:35 AM 93.2 °F 91.9 °F 57.2 °F 30% 29.94 in 10.0 mi East 18.4 mph 26.5 mph N/A   Clear
11:55 AM 93.2 °F 91.3 °F 55.4 °F 28% 29.94 in 10.0 mi East 19.6 mph 26.5 mph N/A   Clear
12:15 PM 93.2 °F 91.3 °F 55.4 °F 28% 29.94 in 10.0 mi East 16.1 mph 27.6 mph N/A   Clear
12:35 PM 91.4 °F 89.9 °F 57.2 °F 31% 29.93 in 10.0 mi ESE 13.8 mph 19.6 mph N/A   Clear
12:55 PM 91.4 °F 89.4 °F 55.4 °F 29% 29.93 in 10.0 mi East 20.7 mph 25.3 mph N/A   Clear
1:15 PM 89.6 °F 88.9 °F 59.0 °F 36% 29.93 in 10.0 mi ESE 12.7 mph 21.9 mph N/A   Clear
1:35 PM 91.4 °F 89.9 °F 57.2 °F 31% 29.92 in 10.0 mi East 17.3 mph 23.0 mph N/A   Clear
1:55 PM 91.4 °F 89.9 °F 57.2 °F 31% 29.91 in 10.0 mi East 18.4 mph 25.3 mph N/A   Clear
2:15 PM 93.2 °F 91.9 °F 57.2 °F 30% 29.90 in 10.0 mi East 18.4 mph 24.2 mph N/A   Clear
2:35 PM 93.2 °F 92.6 °F 59.0 °F 32% 29.89 in 10.0 mi East 17.3 mph - N/A   Clear
2:55 PM 93.2 °F 91.9 °F 57.2 °F 30% 29.87 in 10.0 mi East 19.6 mph 26.5 mph N/A   Clear
3:15 PM 91.4 °F 90.7 °F 59.0 °F 34% 29.86 in 10.0 mi East 15.0 mph 24.2 mph N/A   Clear
3:35 PM 91.4 °F 90.7 °F 59.0 °F 34% 29.85 in 10.0 mi East 17.3 mph 26.5 mph N/A   Clear
3:55 PM 93.2 °F 93.3 °F 60.8 °F 34% 29.85 in 10.0 mi East 19.6 mph - N/A   Clear
4:15 PM 93.2 °F 92.6 °F 59.0 °F 32% 29.85 in 10.0 mi East 15.0 mph - N/A   Clear
4:35 PM 93.2 °F 93.3 °F 60.8 °F 34% 29.86 in 10.0 mi East 16.1 mph - N/A   Clear
4:55 PM 91.4 °F 91.4 °F 60.8 °F 36% 29.86 in 10.0 mi East 10.4 mph - N/A   Clear
5:15 PM 91.4 °F 91.4 °F 60.8 °F 36% 29.87 in 10.0 mi East 10.4 mph - N/A   Clear
5:35 PM 89.6 °F 90.1 °F 62.6 °F 40% 29.89 in 10.0 mi SE 10.4 mph - N/A   Clear
5:55 PM 89.6 °F 90.1 °F 62.6 °F 40% 29.90 in 10.0 mi ESE 6.9 mph - N/A   Clear
6:15 PM 86.0 °F 87.3 °F 64.4 °F 48% 29.93 in 9.0 mi SSW 26.5 mph 39.1 mph N/A   Partly Cloudy
6:35 PM 82.4 °F 83.4 °F 62.6 °F 51% 29.96 in 5.0 mi South 26.5 mph 40.3 mph N/A   Mostly Cloudy
6:55 PM 77.0 °F - 66.2 °F 69% 29.97 in 2.5 mi SSW 21.9 mph 29.9 mph 0.13 in   Overcast
7:15 PM 77.0 °F - 64.4 °F 65% 29.97 in 10.0 mi SSW 19.6 mph 32.2 mph N/A   Overcast
7:35 PM 77.0 °F - 64.4 °F 65% 29.98 in 10.0 mi SW 10.4 mph 25.3 mph N/A   Mostly Cloudy
7:55 PM 77.0 °F - 68.0 °F 74% 29.98 in 10.0 mi West 8.1 mph - N/A   Mostly Cloudy
8:15 PM 75.2 °F - 68.0 °F 78% 29.97 in 10.0 mi NW 6.9 mph - N/A   Mostly Cloudy
8:35 PM 77.0 °F - 68.0 °F 74% 29.98 in 10.0 mi North 8.1 mph - N/A   Overcast
8:55 PM 75.2 °F - 68.0 °F 78% 29.98 in 10.0 mi North 6.9 mph - N/A   Overcast
9:35 PM 77.0 °F - 66.2 °F 69% 29.96 in 10.0 mi North 8.1 mph - N/A   Overcast
9:55 PM 77.0 °F - 66.2 °F 69% 29.96 in 10.0 mi NNE 6.9 mph - N/A   Mostly Cloudy
10:15 PM 77.0 °F - 64.4 °F 65% 29.96 in 10.0 mi NNE 6.9 mph - N/A   Partly Cloudy
10:35 PM 77.0 °F - 64.4 °F 65% 29.96 in 10.0 mi NE 5.8 mph - N/A   Scattered Clouds
10:55 PM 77.0 °F - 64.4 °F 65% 29.95 in 10.0 mi NE 4.6 mph - N/A   Scattered Clouds
11:15 PM 77.0 °F - 64.4 °F 65% 29.95 in 10.0 mi ENE 3.5 mph - N/A   Partly Cloudy
11:35 PM 77.0 °F - 66.2 °F 69% 29.95 in 10.0 mi ESE 3.5 mph - N/A   Mostly Cloudy
11:55 PM 75.2 °F - 66.2 °F 73% 29.95 in 10.0 mi SSW 5.8 mph - N/A   Overcast